These data are preliminary and have not undergone final quality control by the National Climatic Data Center (NCDC). Therefore, these data are subject to revision. Final and certified climate data can be accessed at the NCDC - http://www.ncdc.noaa.gov.

Regional Weather Roundup


000
ASUS46 KSEW 030320
RWRWA

WASHINGTON REGIONAL WEATHER ROUNDUP
NATIONAL WEATHER SERVICE SEATTLE WA
800 PM PDT MON AUG 02 2021

NOTE:"FAIR" INDICATES FEW OR NO CLOUDS BELOW 12,000 FEET WITH NO
SIGNIFICANT WEATHER AND/OR OBSTRUCTIONS TO VISIBILITY.

WAZ507-509-555>559-030400-
SEATTLE, TACOMA, EVERETT, AND VICINITY

CITY           SKY/WX    TMP DP  RH WIND       PRES   REMARKS
EVERETT        PTCLDY    64  55  72 N10G18    30.10F
BOEING FIELD   PTCLDY    81  44  27 VRB6      30.05S
RENTON         PTCLDY    80  56  43 NW14      30.04S HAZE
SEATAC AIRPORT PTCLDY    80  49  33 N16       30.05F
JBLM-MCCHORD   MOCLDY    78  41  25 N12       30.05S
PUYALLUP       FAIR      79  54  41 CALM      30.07S
BREMERTON      PTCLDY    76  53  44 NE7       30.06F
JBLM-FT LEWIS  PTCLDY    81  49  32 N9        30.05R
TACOMA NARROWS PTCLDY    72  49  44 N7        30.06R

WAZ001-503-506-510-514-515-030400- NORTH INTERIOR CITY SKY/WX TMP DP RH WIND PRES REMARKS BELLINGHAM PTCLDY 70 63 78 SW5 30.07S FRIDAY HARBOR CLEAR 59 53 80 CALM 30.09S EASTSOUND PTCLDY 68 57 68 SE7 30.06S PORT ANGELES CLEAR 63 54 72 W7 30.11S EDIZ HOOK FAIR 59 54 84 W18G28 30.10S PORT TOWNSEND FAIR 66 55 68 NW8 30.06F NAS WHIDBEY PTCLDY 59 53 80 W7 30.13S ARLINGTON PTCLDY 69 57 65 NW7 30.09R BURLINGTON CLEAR 70 57 64 S3 30.09R
WAZ020-022-039-040-504-511-512-030400- SOUTHWEST INTERIOR CITY SKY/WX TMP DP RH WIND PRES REMARKS SHELTON CLEAR 84 57 39 CALM 30.03R OLYMPIA CLEAR 81 55 40 NE7 30.05R CHEHALIS FAIR 79 66 65 VRB5 30.04F KELSO CLEAR 75 63 66 VRB5 30.03S VANCOUVER CLEAR 84 60 44 NW9G17 29.98R SCAPPOOSE, OR CLEAR 85 60 42 NW9 29.98R PORTLAND, OR PTCLDY 84 63 49 NW12G20 29.99R
WAZ021-516-517-030400- WASHINGTON COAST CITY SKY/WX TMP DP RH WIND PRES REMARKS FORKS CLEAR 60 53 77 NW8 30.14S HOQUIAM CLEAR 65 54 67 W8 30.09S ASTORIA, OR CLEAR 61 54 77 NW17G24 30.09R
WAZ019-023-024-040-567>569-030400- CASCADE MOUNTAINS AND COLUMBIA GORGE CITY SKY/WX TMP DP RH WIND PRES REMARKS STAMPEDE PASS MOCLDY 72 58 61 VRB5 30.25S TROUTDALE, OR CLEAR 85 63 47 VRB5 29.98R HOOD RIVER, OR PTCLDY 82 64 54 CALM 29.96R THE DALLES, OR MOCLDY 99 60 27 NE8 29.91S HAZE HX 99
WAZ026-027-041>044-520-521-030400- EAST SLOPES CITY SKY/WX TMP DP RH WIND PRES REMARKS OMAK PTCLDY 86 60 41 N8 30.00R HAZE WENATCHEE PTCLDY 92 51 24 NW6 30.00R ELLENSBURG MOCLDY 85 52 32 CALM 30.05R YAKIMA MOCLDY 90 56 31 CALM 30.01R HAZE SUNNYSIDE ARPT MOCLDY 82 73 74 CALM 29.99R YAKIMA TC FAIR 90 51 26 SE7 30.01S
WAZ028-034-035-030400- COLUMBIA BASIN CITY SKY/WX TMP DP RH WIND PRES REMARKS EPHRATA PTCLDY 89 55 31 SW5 30.00R HAZE MOSES LAKE PTCLDY 91 53 27 S6 30.01R HAZE PASCO PTCLDY 94 58 29 E3 29.95S HX 93 RICHLAND ARPT PTCLDY 93 54 26 CALM 29.96R HX 91 HERMISTON, OR MOCLDY 89 58 34 E5 29.97S
WAZ036>038-030400- NORTHEAST WASHINGTON CITY SKY/WX TMP DP RH WIND PRES REMARKS SPOKANE GEIGER MOCLDY 86 52 30 W6 30.09R SMOKE SPOKANE FELTS CLOUDY 86 55 34 CALM 30.06R SMOKE FAIRCHILD AFB CLOUDY 83 52 34 SW5 30.10R SMOKE COEURDALENE,ID CLEAR 84 56 38 NE3 30.09S HAZE DEER PARK CLOUDY 82 56 40 CALM 30.08R HAZE
WAZ029>033-030400- SOUTHEAST WASHINGTON CITY SKY/WX TMP DP RH WIND PRES REMARKS PULLMAN CLEAR 82 53 36 W5 30.12R HAZE LEWISTON, ID CLEAR 92 50 23 NW5 30.02R WALLA WALLA CLEAR 92 56 29 CALM 30.00S HX 90 PENDLETON, OR MOCLDY 89 52 28 NE5 30.04R